FENGYUN 1C DEB, 29940

Orbit data source: Space-Track

FENGYUN 1C DEB, 29940 is space debris in SSO originally from a launch on Mon, 10 May 1999 UTC launched from the Taiyaun Space Center, China (TSC). Fengyun 1C debris stems from the Chinese weather satellite Fengyun-1C, which was intentionally destroyed by a Chinese anti-satellite missile in 2007. This event dramatically increased the amount of space debris, with thousands of trackable fragments posing hazards to satellites and human spaceflight. The Fengyun 1C debris cloud has become a focal point in discussions about space sustainability and the need for international regulations to prevent the creation of new debris.

Loading next visibility...
Identifier
29940, 1999-025JN
Orbit
SSO
Country
Flag of CNCN / PRC
Related business
Manufacturer
Unknown
Mission
Spacecraft
Bus & Motor
Unknown
Mass
Unknown
Launch date (UTC)
1999-05-10 (27 years ago)
Launch vehicle
Unknown
Launch site
Taiyaun Space Center, China (TSC)
Object type
Payload
Rocket body
Debris
Shape & HBR
Unknown shape, 0.1 m
Radar Cross Section
Small (<0.1 m²)

Expand to show TLE details & history
Last TLE update: 2 days ago

TLE from 2 days ago
0 FENGYUN 1C DEB
1 29940U 99025JN  26069.96610661  .00001081  00000-0  52347-3 0  9991
2 29940  98.6213  82.2366 0073383 204.6469 213.9073 14.19073530987391
Epoch: 2026-03-10T23:11Z
TLE epoch observation values (Epoch: 2026-03-10T23:11:11.611Z)
Latitude
57.16217°
Longitude
-87.71319°
Altitude
882.065 km
Speed
7.394 km/s
True Right ascension
04h 34m 53s
True Declination
57° 00' 29"
Sunlit
Object was in daylight at epoch
Visualization orbit readout
Latitude
Unknown
Longitude
Unknown
Altitude
Unknown
Speed
Unknown
Apparent Right ascension
Unknown
Apparent Declination
Unknown
Sunlit
N/A
Visualization observer readout
Local Sidereal Time
17:08:02
Azimuth
Unknown
Elevation
Unknown
Doppler factor
Unknown
Orbital elements
Apogee altitude
878.507 km
Perigee altitude
772.78 km
Semi-major axis
7,203.78 km
Eccentricity
0.00734
Inclination
98.6213°
RAAN
82.2366°
Arg. of periapsis
204.6469°
True anomaly
213.44175°
Mean anomaly
213.9073°
Eccentric anomaly
213.67417°
Mean motion
3.54979 °/min
Orbital period
101.41 mins
BSTAR
0.00052347
Loading maneuver chart data...
Computing Atmospheric mass density...
Loading historical data...
Loading historical data...
Loading historical data...
Loading historical data...
Loading historical data...
Loading historical data...
Loading historical data...

Documentation

Showing up to 5 results
|